Showing default

TOMORROW-S7, 63631

Orbit data source: Space-Track

TOMORROW-S7, 63631 is a payload satellite owned by Tomorrow.io (US) in LEO that was launched on Tue, 22 Apr 2025 UTC via an FALCON 9 launch vehicle from the Air Force Eastern Test Range (AFETR). Payload-class satellites include a variety of spacecraft equipped with specific instruments for various scientific and technological missions. These include communications satellites like Starlink; space stations such as the ISS; scientific satellites like the Hubble; Earth observation satellites from companies like Planet Labs, Umbra, and HawkEye 360; GPS; miniature CubeSats for education and research; and military/defense satellites.

Loading next visibility...
Identifier
63631, 2025-081B
Orbit
LEO
Country
Flag of USUS
Related business
Manufacturer
Blue Canyon
Mission
Operational Commercial Weather
Bus & Motor
CUBESAT 6U, Unknown motor
Mass
12 kg wet, 12 kg dry
Launch date (UTC)
2025-04-22 (6 months ago)
Launch vehicle
FALCON 9
Launch site
Air Force Eastern Test Range (AFETR)
Object type
Payload
Rocket body
Debris
Shape & HBR
Box + 2 Pan, 1.0 m
Radar Cross Section
0.138 m², Medium (>0.1 m² and < 1m²)

Expand to show TLE details & history
Last TLE update: 7 hours ago

TLE from 7 hours ago
0 TOMORROW-S7
1 63631U 25081B   25296.61226992  .00002668  00000-0  23896-3 0  9999
2 63631  45.3911 123.2553 0001208  97.8627 262.2387 14.98409564 27677
Epoch: 2025-10-23T14:41Z
TLE epoch observation values (Epoch: 2025-10-23T14:41:40.121Z)
Latitude
-0.00006°
Longitude
-129.43096°
Altitude
571.965 km
Speed
7.576 km/s
True Right ascension
08h 13m 01s
True Declination
0° 00' 00"
Sunlit
Object was in daylight at epoch
Visualization orbit readout
Latitude
Unknown
Longitude
Unknown
Altitude
Unknown
Speed
Unknown
Apparent Right ascension
Unknown
Apparent Declination
Unknown
Sunlit
N/A
Visualization observer readout
Local Sidereal Time
17:17:51
Azimuth
Unknown
Elevation
Unknown
Doppler factor
Unknown
Orbital elements
Apogee altitude
574.173 km
Perigee altitude
572.494 km
Semi-major axis
6,951.471 km
Eccentricity
0.00012
Inclination
45.3911°
RAAN
123.2553°
Arg. of periapsis
97.8627°
True anomaly
262.22498°
Mean anomaly
262.2387°
Eccentric anomaly
262.23184°
Mean motion
3.7448 °/min
Orbital period
96.13 mins
BSTAR
0.00023896
Loading maneuver chart data...
Computing Atmospheric mass density...
Loading historical data...
Loading historical data...
Loading historical data...
Loading historical data...
Loading historical data...
Loading historical data...
Loading historical data...
Other satellites on launch #81 in the year 2025 (2025-04-22 UTC)

Documentation

Showing up to 5 results
|